This is the latest recevied weather packets stored in our database for station/object KC9NBZ. If no packets are shown the sender has not sent any weather packets the latest 10 day(s).
| Time | Temp. | Humidity | Pressure | Rain* | Wind** | Luminosity | Snow |
|---|---|---|---|---|---|---|---|
| 1777643720 | 5° C | 81% | 1016.8 hPa | 0 mm | - | 230 W/m² | - |
| 1777642519 | 4.44° C | 87% | 1016.6 hPa | 0 mm | - | 248 W/m² | - |
| 1777641319 | 3.89° C | 88% | 1016.6 hPa | 0 mm | - | 177 W/m² | - |
| 1777639519 | 3.89° C | 90% | 1016.5 hPa | 0 mm | - | 158 W/m² | - |
| 1777638926 | 3.89° C | 91% | 1016.4 hPa | 0 mm | - | 199 W/m² | - |
| 1777638339 | 3.33° C | 92% | 1016.3 hPa | 0 mm | - | 168 W/m² | - |
| 1777637120 | 2.78° C | 95% | 1016.2 hPa | 0 mm | - | 118 W/m² | - |
| 1777633530 | 0° C | 98% | 1015.6 hPa | 0 mm | - | 11 W/m² | - |
| 1777632931 | -0.56° C | 98% | 1015.5 hPa | 0 mm | - | 5 W/m² | - |
| 1777631131 | 0° C | 98% | 1015.3 hPa | 0 mm | - | 0 W/m² | - |
| 1777628132 | 1.11° C | 97% | 1015.4 hPa | 0 mm | - | 0 W/m² | - |
| 1777626933 | 1.67° C | 98% | 1015.4 hPa | 0 mm | - | 0 W/m² | - |
| 1777623333 | 2.22° C | 98% | 1015.1 hPa | 0 mm | - | 0 W/m² | - |
| 1777619720 | 2.22° C | 98% | 1014.9 hPa | 0 mm | - | 0 W/m² | - |
| 1777615520 | 2.78° C | 96% | 1015.2 hPa | 0 mm | - | 0 W/m² | - |
| 1777614321 | 3.33° C | 95% | 1015.3 hPa | 0 mm | - | 0 W/m² | - |
| 1777612521 | 3.33° C | 95% | 1015.1 hPa | 0 mm | - | 0 W/m² | - |
| 1777609519 | 4.44° C | 94% | 1014.8 hPa | 0 mm | - | 0 W/m² | - |
| 1777607140 | 5° C | 93% | 1015 hPa | 0 mm | - | 0 W/m² | - |
| 1777602922 | 6.11° C | 89% | 1014.7 hPa | 0 mm | - | 0 W/m² | - |
| 1777601726 | 6.11° C | 87% | 1014.5 hPa | 0 mm | - | 0 W/m² | - |
| 1777598119 | 7.22° C | 85% | 1013.8 hPa | 0 mm | - | 0 W/m² | - |
| 1777597521 | 7.22° C | 84% | 1013.7 hPa | 0 mm | - | 1 W/m² | - |
| 1777595720 | 7.78° C | 79% | 1013.5 hPa | 0 mm | - | 9 W/m² | - |
| 1777595120 | 7.78° C | 77% | 1013.5 hPa | 0 mm | - | 18 W/m² | - |
* Rain latest hour (hover to see other rain measurements)
** Current wind speed in m/s (hover to see current wind gust speed)